Station: Tasman Island  

  Atmospheric Gas Attenuation - ITU Rec 676-11   ----------------- dB/100km -----------------
Date Time Temp RH % AH g/m3 Dew Point Wind Direction Speed kph Gust kph Barometer mB Rainfall Since 9am 24GHz 47GHz 76GHz 122GHz 134GHz 241GHz
03/09 18:30 6.5 75 5.63 2.4 11 28 1001.3 0.6 13.5 22.7 30.8 80.4 66.5 226.0
03/09 18:20 6.4 77 5.74 2.7 11 33 1001 0.6 13.8 22.9 31.2 81.6 68.0 231.2
03/09 18:10 6.8 73 5.59 2.3 11 30 1000.7 0.6 13.4 22.5 30.5 79.6 65.7 223.2
03/09 18:00 6.8 71 5.43 1.9 11 33 1000.4 0.6 13.1 22.3 29.8 78.0 63.7 216.0
03/09 17:50 6.9 71 5.47 2 13 35 1000 0.6 13.2 22.3 29.9 78.2 64.1 217.4
03/09 17:40 6.4 72 5.37 1.7 13 48 999.5 0.6 13.0 22.2 29.7 77.7 63.2 214.2
03/09 17:30 6.7 70 5.32 1.6 17 46 998.9 0.6 12.8 22.1 29.4 76.8 62.3 211.1
03/09 17:20 6.8 72 5.51 2.1 19 63 998.8 0.6 13.3 22.3 30.1 78.6 64.6 219.2
03/09 17:10 6.3 77 5.7 2.6 17 52 998.5 0.6 13.7 22.7 31.0 81.1 67.4 229.1
03/09 17:00 7.3 70 5.53 2.2 19 43 998.7 0.4 13.3 22.2 30.0 78.3 64.4 218.7
03/09 16:50 7.4 70 5.57 2.3 28 48 998.2 0.4 13.4 22.3 30.1 78.6 64.8 220.1
03/09 16:40 7.2 73 5.73 2.7 26 50 997.7 0.4 13.7 22.5 30.7 80.4 67.0 227.7
03/09 16:30 7.3 73 5.77 2.8 33 52 997.5 0.4 13.8 22.6 30.8 80.7 67.4 229.2
03/09 16:20 7 78 6.05 3.4 30 56 997.5 0.4 14.4 23.1 32.1 83.9 71.3 242.7
03/09 16:10 6.8 79 6.05 3.4 24 46 997.6 0.4 14.4 23.1 32.1 84.2 71.5 243.4
03/09 16:00 7.1 76 5.93 3.2 30 54 997.2 0.4 14.1 22.9 31.5 82.5 69.6 236.9
03/09 15:50 6.5 79 5.93 3.1 28 54 997.3 0.4 14.2 23.0 31.8 83.2 70.1 238.7
03/09 15:40 6.8 79 6.05 3.4 19 39 997.3 0.4 14.4 23.1 32.1 84.1 71.4 243.3
03/09 15:30 6.7 78 5.93 3.1 17 41 997.1 0.4 14.2 23.0 31.7 83.0 70.0 238.1
03/09 15:20 7.1 75 5.85 3 22 48 996.9 0.4 14.0 22.7 31.2 81.7 68.6 233.2
03/09 15:10 8 67 5.54 2.3 22 48 996.7 0.4 13.3 22.0 29.7 77.6 63.9 216.9
03/09 15:00 8.6 66 5.67 2.6 15 32 996.5 0.2 13.5 22.1 29.9 78.3 65.0 220.9
03/09 14:50 8.2 69 5.78 2.9 13 33 996.5 0.2 13.8 22.3 30.5 79.8 66.7 226.8
03/09 14:40 8.2 69 5.78 2.9 11 28 996.1 0.2 13.8 22.3 30.5 79.8 66.7 226.8
03/09 14:30 7.9 74 6.08 3.6 11 32 996 0.2 14.4 22.8 31.7 83.2 70.7 241.0
03/09 14:20 7 71 5.5 2.1 17 48 996 0.2 13.2 22.2 29.9 78.1 64.1 217.7
03/09 14:10 8.3 68 5.73 2.8 13 28 996.2 0 13.7 22.2 30.3 79.2 66.0 224.3
03/09 14:00 8.8 58 5.05 1 33 57 995.6 0 12.2 21.0 27.5 71.9 57.2 193.4
03/09 13:50 9 57 5.03 1 17 50 994.9 0 12.1 20.9 27.4 71.4 56.7 192.0
03/09 13:40 10.2 50 4.76 0.3 13 35 994.9 0 11.5 20.3 26.0 67.8 52.7 178.0
03/09 13:30 10.7 48 4.72 0.2 13 48 995.2 0 11.4 20.1 25.7 67.0 51.9 175.3
03/09 13:20 10.5 56 5.43 2.1 7 26 995.5 0 13.0 21.2 28.3 74.0 60.5 205.3
03/09 13:10 10.2 56 5.33 1.8 11 28 995.3 0 12.7 21.1 28.1 73.3 59.5 201.8
03/09 13:00 10 56 5.26 1.6 11 43 995.3 0 12.6 21.1 27.9 72.8 58.8 199.4
03/09 12:50 9.9 55 5.14 1.3 13 30 995.3 0 12.4 20.9 27.5 71.7 57.4 194.5
03/09 12:40 10.2 57 5.43 2.1 11 28 995.5 0 13.0 21.3 28.4 74.3 60.7 206.1
03/09 12:30 10 54 5.08 1.1 11 32 995.5 0 12.2 20.8 27.2 71.1 56.6 191.8
03/09 12:20 10 55 5.17 1.4 11 41 995.3 0 12.4 20.9 27.5 71.9 57.7 195.6
03/09 12:10 10 57 5.36 1.9 13 37 995.6 0 12.8 21.2 28.2 73.8 60.0 203.6
03/09 12:00 9.9 57 5.32 1.8 13 39 995.3 0 12.7 21.2 28.1 73.5 59.6 202.1
03/09 11:50 9.7 57 5.26 1.6 13 37 995.3 0 12.6 21.1 28.0 73.1 59.0 200.1
03/09 11:40 9.7 59 5.44 2.1 11 30 995.2 0 13.0 21.4 28.6 74.8 61.2 207.7
03/09 11:30 9.3 62 5.57 2.4 13 33 995.1 0 13.3 21.7 29.2 76.5 63.1 214.4
03/09 11:20 9.5 63 5.74 2.8 9 30 995.2 0 13.7 21.9 29.8 78.0 65.0 221.2
03/09 11:10 9.2 64 5.72 2.8 11 35 995.2 0 13.6 21.9 29.8 78.1 65.0 221.1
03/09 11:00 9.7 63 5.81 3 9 30 995.1 0 13.8 22.0 30.0 78.5 65.7 223.6
03/09 10:50 9.4 62 5.61 2.5 9 33 994.9 0 13.4 21.7 29.4 76.8 63.5 215.8
03/09 10:40 9.5 63 5.74 2.8 11 37 994.9 0 13.7 21.9 29.8 78.0 65.0 221.1
03/09 10:30 9.2 59 5.27 1.6 11 43 994.9 0 12.7 21.3 28.2 73.6 59.5 201.7
03/09 10:20 8.9 61 5.35 1.8 11 30 994.7 0 12.8 21.4 28.6 74.6 60.7 205.9
03/09 10:10 8.9 67 5.87 3.1 9 37 994.8 0 14.0 22.2 30.5 79.9 67.1 228.5
03/09 10:00 8.9 70 6.13 3.7 7 28 995.2 0 14.5 22.6 31.5 82.5 70.4 240.0
03/09 09:50 8.8 72 6.27 4 7 26 994.9 0 14.8 22.9 32.1 84.1 72.3 246.5
03/09 09:40 9 70 6.17 3.8 6 20 994.8 0 14.6 22.7 31.6 82.8 70.8 241.4
03/09 09:30 8.6 68 5.85 3 9 33 995 0 13.9 22.3 30.6 80.0 67.1 228.5
03/09 09:20 9.5 63 5.74 2.8 9 33 995.3 0 13.7 21.9 29.8 78.0 65.0 221.2
03/09 09:10 9.7 59 5.44 2.1 7 30 994.9 0 13.0 21.4 28.6 74.8 61.2 207.7
03/09 09:00 10.4 64 6.17 3.9 7 26 994.9 0 14.5 22.3 31.1 81.4 69.6 237.2
03/09 08:50 9.8 75 6.96 5.6 7 26 994.8 1.8 16.3 23.7 34.3 90.1 80.1 274.3
03/09 08:40 9.1 72 6.39 4.3 9 32 994.3 1.8 15.1 23.0 32.4 84.9 73.5 250.8
03/09 08:30 10 71 6.67 5 9 24 994.1 1.8 15.6 23.2 33.1 86.8 76.2 260.4
03/09 08:20 9.9 72 6.72 5.1 11 32 993.9 1.8 15.7 23.3 33.3 87.4 76.9 262.9
03/09 08:10 9.8 70 6.5 4.6 11 35 993.3 1.8 15.3 22.9 32.5 85.2 74.1 253.3
03/09 08:00 9.7 73 6.73 5.1 15 41 993.1 1.8 15.8 23.3 33.4 87.7 77.2 263.8
03/09 07:50 9.5 74 6.74 5.1 15 37 992.7 1.8 15.8 23.3 33.5 88.0 77.5 264.9
03/09 07:40 9.4 75 6.79 5.2 11 30 992.8 1.8 15.9 23.5 33.8 88.6 78.2 267.5
03/09 07:30 9.3 78 7.01 5.7 9 28 993.1 1.8 16.4 23.8 34.7 91.1 81.2 277.9
03/09 07:20 9.3 77 6.92 5.5 11 30 993.3 1.8 16.2 23.7 34.3 90.1 80.0 273.8
03/09 07:10 9.2 78 6.97 5.6 11 37 993.1 1.8 16.3 23.8 34.6 90.8 80.8 276.4
03/09 07:00 9.1 90 7.99 7.5 11 28 993.4 1.8 18.5 25.5 38.8 101.9 94.5 324.4
03/09 06:50 9 94 8.29 8.1 9 32 993.6 1.8 19.2 26.0 40.1 105.4 98.7 339.3
03/09 06:40 9 91 8.03 7.6 9 28 993.6 1.6 18.6 25.6 39.0 102.5 95.2 326.8
03/09 06:30 10.2 83 7.9 7.4 20 43 993.3 1 18.3 25.0 37.9 99.5 91.9 315.6
03/09 06:20 10.2 81 7.71 7.1 22 46 993 0.4 17.9 24.7 37.1 97.4 89.4 306.7
03/09 06:10 10.2 83 7.9 7.4 17 30 992.9 0.4 18.3 25.0 37.8 99.5 91.9 315.5
03/09 06:00 10.8 77 7.61 6.9 19 32 993.1 0 17.6 24.4 36.4 95.6 87.4 299.8
03/09 05:50 10.8 75 7.41 6.6 20 33 992.9 0 17.2 24.1 35.6 93.5 84.8 290.6
03/09 05:40 10.9 75 7.46 6.6 19 33 992.7 0 17.3 24.1 35.7 93.9 85.3 292.5
03/09 05:30 11.1 73 7.35 6.5 20 37 992.5 0 17.0 23.9 35.2 92.5 83.6 286.7
03/09 05:20 11.6 68 7.07 5.9 26 41 992.3 0 16.4 23.3 33.9 89.0 79.5 272.4
03/09 05:10 12 63 6.71 5.2 30 46 992.1 0 15.6 22.6 32.4 84.9 74.6 255.2
03/09 05:00 11.6 65 6.76 5.3 24 41 992.3 0 15.8 22.8 32.7 85.8 75.6 258.7
03/09 04:50 11.3 67 6.84 5.4 19 32 992.3 0 15.9 23.0 33.1 87.0 76.9 263.2
03/09 04:40 10.9 69 6.86 5.4 20 46 992 0 16.0 23.1 33.4 87.6 77.6 265.4
03/09 04:30 11 69 6.91 5.5 20 39 992.1 0 16.1 23.2 33.5 88.0 78.1 267.3
03/09 04:20 11.1 70 7.05 5.8 17 30 992.1 0 16.4 23.4 34.0 89.3 79.8 273.2
03/09 04:10 10.8 71 7.02 5.8 17 28 992.4 0 16.4 23.4 34.1 89.4 79.7 272.9
03/09 04:00 10.7 73 7.17 6.1 17 28 992.5 0 16.7 23.7 34.7 91.1 81.7 280.0
03/09 03:50 10.8 73 7.22 6.2 19 24 993.2 0 16.8 23.8 34.9 91.5 82.3 282.1
03/09 03:40 10.9 71 7.06 5.9 15 24 993.4 0 16.4 23.5 34.2 89.8 80.2 274.6
03/09 03:30 11.3 68 6.94 5.6 20 35 993.6 0 16.2 23.2 33.6 88.1 78.3 267.9
03/09 03:20 11.5 67 6.92 5.6 19 35 993.7 0 16.1 23.1 33.4 87.7 77.8 266.4
03/09 03:10 11.4 68 6.98 5.7 19 32 993.9 0 16.2 23.3 33.7 88.4 78.7 269.4
03/09 03:00 11.1 69 6.95 5.6 19 35 994.3 0 16.2 23.3 33.7 88.5 78.7 269.2
03/09 02:50 11.3 67 6.84 5.4 22 44 994.6 0 15.9 23.1 33.2 87.2 77.1 263.7
03/09 02:40 11.5 66 6.82 5.4 22 46 994.6 0 15.9 23.0 33.1 86.8 76.6 262.2
03/09 02:30 11.5 67 6.92 5.6 20 35 994.9 0 16.1 23.2 33.5 87.8 77.9 266.7
03/09 02:20 11.4 67 6.88 5.5 22 41 995.4 0 16.0 23.2 33.4 87.6 77.5 265.3
03/09 02:10 11.2 68 6.89 5.5 22 50 995.8 0 16.1 23.3 33.5 87.9 77.9 266.5
03/09 02:00 11.4 66 6.78 5.3 22 44 995.8 0 15.8 23.0 33.0 86.6 76.3 261.0

Last Refresh: 03-Sep-2026 18:08:57

Bureau of Meteorology